This is the latest recevied weather packets stored in our database for station/object KC1DMA. If no packets are shown the sender has not sent any weather packets the latest 10 day(s).
| Time | Temp. | Humidity | Pressure | Rain* | Wind** | Luminosity | Snow |
|---|---|---|---|---|---|---|---|
| 1777855486 | 7.78° C | 54% | 1012.1 hPa | - | - | 0 W/m² | - |
| 1777855183 | 7.78° C | 53% | 1012 hPa | - | - | 0 W/m² | - |
| 1777854879 | 8.33° C | 53% | 1012.1 hPa | - | - | 0 W/m² | - |
| 1777854575 | 8.33° C | 52% | 1011.9 hPa | - | - | 0 W/m² | - |
| 1777854273 | 8.89° C | 54% | 1011.8 hPa | - | - | 0 W/m² | - |
| 1777853970 | 9.44° C | 45% | 1011.7 hPa | - | - | 1 W/m² | - |
| 1777853667 | 9.44° C | 45% | 1011.9 hPa | - | - | 1 W/m² | - |
| 1777853364 | 9.44° C | 45% | 1011.7 hPa | - | - | 1 W/m² | - |
| 1777853061 | 9.44° C | 45% | 1011.7 hPa | - | - | 1 W/m² | - |
| 1777852758 | 10° C | 43% | 1011.6 hPa | - | - | 2 W/m² | - |
| 1777852456 | 10.56° C | 40% | 1011.6 hPa | - | - | 4 W/m² | - |
| 1777852154 | 11.11° C | 37% | 1011.5 hPa | - | - | 7 W/m² | - |
| 1777851851 | 11.11° C | 38% | 1011.4 hPa | - | - | 7 W/m² | - |
| 1777851548 | 11.11° C | 37% | 1011.6 hPa | - | - | 10 W/m² | - |
| 1777851245 | 11.67° C | 37% | 1011.4 hPa | - | - | 13 W/m² | - |
| 1777850941 | 11.67° C | 37% | 1011.3 hPa | - | - | 17 W/m² | - |
| 1777850638 | 12.22° C | 36% | 1011.2 hPa | - | - | 22 W/m² | - |
| 1777850336 | 12.22° C | 37% | 1011.4 hPa | - | - | 23 W/m² | - |
| 1777850033 | 12.78° C | 35% | 1011.4 hPa | - | - | 30 W/m² | - |
| 1777849729 | 12.78° C | 34% | 1011.3 hPa | - | - | 34 W/m² | - |
| 1777849426 | 12.78° C | 35% | 1011.3 hPa | - | - | 39 W/m² | - |
| 1777849124 | 12.78° C | 35% | 1011.2 hPa | - | - | 46 W/m² | - |
| 1777848819 | 12.78° C | 35% | 1011.2 hPa | - | - | 54 W/m² | - |
| 1777848516 | 12.78° C | 34% | 1011.2 hPa | - | - | 62 W/m² | - |
| 1777848213 | 12.78° C | 34% | 1011.2 hPa | - | - | 72 W/m² | - |
* Rain since midnight (hover to see other rain measurements)
** Current wind speed in m/s (hover to see current wind gust speed)